Location: Newark
(44.0160°N, 116.9215°W)
Time: 05:17:36
(UTC+00:00)

Envisat - Pass Details

Date: 19 November 2019
Orbit: 764 x 766 km, 98.1° (Epoch: 10 December)

Event Time Altitude Azimuth Distance (km) Brightness Sun altitude
Rises 02:12:46 0° 181° (S) 3,218 6.3 -20.3°
Reaches altitude 10° 02:15:09 10° 187° (S) 2,296 5.6 -20.8°
Maximum altitude 02:20:01 48° 261° (W) 1,001 4.0 -21.6°
Drops below altitude 10° 02:24:57 10° 336° (NNW) 2,312 5.7 -22.5°
Sets 02:27:21 0° 342° (NNW) 3,242 6.4 -23.0°
